SCP
1 1 1 1 1 1 1 0 0 0 0 0 0 0 0 0 0 0 0 0 0 0 0 0 0 0 0 0 0 0 0 0 0 0 1 1 1 1
0 0 1 1 1 1 1 0 0 0 0 0 0 0 0 0 0 0 0 0 0 0 0 0 0 0 0 0 0 0 0 0 0 0 0 1 1 1
0 0 0 0 0 1 1 1 0 0 0 0 0 0 0 0 0 0 0 0 0 0 0 0 0 0 0 0 0 0 0 0 0 0 0 0 0 0
0 0 0 0 0 0 0 0 0 0 0 0 0 0 0 0 0 0 0 0 0 0 0 0 0 0 0 0 0 0 0 0 0 0 0 0 0 0
0 0 0 0 0 0 0 0 0 0 0 0 0 0 0 0 0 0 0 0 0 0 0 0 0 0 0 0 0 0 0 0 0 0 0 0 0 0
0 0 0 0 0 0 0 0 0 0 0 0 0 0 0 0 0 0 0 0 0 0 0 0 0 0 0 0 0 0 0 0 0 0 0 0 0 0
0 0 0 0 0 0 0 0 0 0 0 0 0 0 0 0 0 0 0 0 0 0 0 0 0 0 0 0 0 0 0 0 0 0 0 0 0 0
0 0 0 0 0 0 0 0 0 0 0 0 0 0 0 0 0 0 0 0 0 0 0 0 0 0 0 0 0 0 0 0 0 0 0 0 0 0
0 0 0 0 0 0 0 0 0 0 0 0 0 0 0 0 0 0 0 0 0 0 0 0 0 0 0 0 0 0 0 0 0 0 0 0 0 0
0 0 0 0 0 0 0 0 0 0 0 0 0 0 0 0 0 0 0 0 0 0 0 0 0 0 0 0 0 0 0 0 0 0 0 0 0 0
0 0 0 0 0 0 0 0 0 0 0 0 0 0 0 0 0 0 0 0 0 0 0 0 0 0 0 0 0 0 0 0 0 0 0 0 0 0
0 0 0 0 0 0 0 0 0 0 0 0 0 0 0 0 0 0 0 0 0 0 0 0 0 0 0 0 0 0 0 0 0 0 0 0 0 0
0 0 0 0 0 0 0 0 0 0 0 0 0 0 0 0 0 0 0 0 0 0 0 0 0 0 0 0 0 0 0 0 0 0 0 0 0 0
0 0 0 0 0 0 0 0 0 0 0 0 0 0 0 0 0 0 0 0 0 0 0 0 0 0 0 0 0 0 0 0 0 0 0 0 0 0
0 0 0 0 0 0 0 0 0 0 0 0 0 0 0 0 0 0 0 0 0 0 0 0 0 0 0 0 0 0 0 0 0 0 0 0 0 0
0 0 0 0 0 0 0 0 0 0 0 0 0 0 0 0 0 0 0 0 0 0 0 0 0 0 0 0 0 0 0 0 0 0 0 0 0 0
0 0 0 0 0 0 0 0 0 0 0 0 0 0 0 0 0 0 0 0 0 0 0 0 0 0 0 0 0 0 0 0 0 0 0 0 0 0
0 0 0 0 0 0 0 0 0 0 0 0 0 0 0 0 0 0 0 0 0 0 0 0 0 0 0 0 0 0 0 0 0 0 0 0 0 0
0 0 0 0 0 0 0 0 0 0 0 0 0 0 0 0 0 0 0 0 0 0 0 0 0 0 0 0 0 0 0 0 0 0 0 0 0 0
0 0 0 0 0 0 0 0 0 0 0 0 0 0 0 0 0 0 0 0 0 0 0 0 0 0 0 0 0 0 0 0 0 0 0 0 0 0
0 0 0 0 0 0 0 0 0 0 0 0 0 0 0 0 0 0 0 0 0 0 0 0 0 0 0 0 0 0 0 0 0 0 0 0 0 0
0 0 0 0 0 0 0 0 0 0 0 0 0 0 0 0 0 0 0 0 0 0 0 0 0 0 0 0 0 0 0 0 0 0 0 0 0 0
0 0 0 0 0 0 0 0 0 0 0 0 0 0 0 0 0 0 0 0 0 0 0 0 0 0 0 0 0 0 0 0 0 0 0 0 0 0
Wind_Speed
4 5 4 3 3 4 3 4 4 4 5 4 3 4 3 3 4 4 4 5 5 5 5 6 6 6 6 7 7 7 7 7 7 7 7 8 8 8
4 5 5 4 4 4 4 4 4 5 5 4 4 3 4 4 5 5 5 6 6 6 6 7 7 7 7 8 7 8 8 7 7 8 8 8 8 9
5 6 6 5 4 4 4 4 5 5 6 4 3 3 5 5 5 5 5 5 5 7 8 8 8 9 9 9 8 8 8 8 8 9 9 9 9 10
6 6 7 5 6 5 5 5 5 5 6 6 4 4 6 6 5 5 4 4 5 6 8 8 8 8 8 9 9 9 8 9 9 9 9 10 10 11
6 7 7 7 7 6 6 6 5 5 5 5 5 4 4 4 4 5 5 5 5 5 7 8 8 8 8 9 10 10 9 10 10 10 10 11 11 12
6 6 6 7 8 7 6 7 6 6 6 5 5 4 4 4 4 4 4 5 5 5 6 7 8 9 10 10 10 10 10 10 10 10 10 11 11 12
6 7 7 8 9 8 6 6 6 6 6 6 5 4 4 4 4 4 5 4 5 4 5 5 5 5 6 9 10 10 11 11 11 11 11 11 11 12
7 7 7 8 10 11 11 10 9 8 7 6 6 7 7 6 5 4 5 5 5 3 5 6 5 6 6 6 9 11 12 12 12 11 12 12 12 12
7 7 6 6 9 8 9 11 11 12 12 8 9 9 8 7 6 7 7 7 6 4 4 7 5 7 6 6 11 12 12 12 12 12 12 12 12 13
7 8 8 8 7 8 7 8 9 10 11 9 9 9 8 7 7 7 7 6 6 5 5 6 5 6 6 6 10 11 11 12 12 12 12 12 12 13
7 8 9 8 10 11 8 8 8 8 10 12 12 11 11 11 8 5 5 5 6 5 4 5 4 5 6 6 8 11 11 12 12 12 12 13 12 12
6 7 10 10 11 11 8 7 8 7 6 7 8 8 8 8 10 8 6 6 5 5 4 4 4 3 4 4 5 5 7 10 12 13 13 13 12 9
6 5 6 10 12 12 10 7 8 7 5 6 6 5 5 5 6 6 6 6 6 6 4 4 5 5 5 5 5 6 6 6 6 8 10 12 13 11
6 5 6 10 11 10 8 7 8 7 4 5 5 5 5 5 5 5 6 6 7 7 6 6 5 6 6 6 6 5 5 6 6 6 6 9 11 12
5 8 9 10 9 7 7 8 7 5 4 5 6 5 5 4 4 4 4 4 5 5 6 6 6 6 6 7 6 6 6 6 6 6 6 6 6 7
5 7 9 9 7 6 5 5 4 4 5 5 5 4 4 4 4 4 4 3 4 4 4 5 6 6 6 7 7 6 6 6 5 6 6 6 6 6
4 3 3 3 3 3 3 3 3 4 4 4 4 4 4 4 4 4 4 4 5 5 4 3 4 4 6 6 7 7 6 6 6 6 6 7 7 7
4 3 3 3 3 3 3 3 3 3 4 4 4 4 4 4 4 4 4 5 5 5 4 3 3 3 4 5 7 7 6 6 5 6 6 7 8 7
4 3 3 3 3 3 3 3 4 3 3 3 4 4 4 4 4 5 5 5 5 5 4 4 4 4 6 7 5 6 6 5 5 5 6 6 7 7
2 3 3 3 3 3 3 3 3 3 3 4 4 4 4 4 5 5 4 5 5 5 4 4 4 5 6 6 6 6 8 7 6 6 6 6 6 8
3 3 3 3 3 3 3 3 3 3 4 4 4 5 4 4 5 5 4 6 5 5 5 5 5 6 4 4 5 5 6 7 8 6 6 5 6 6
3 3 3 3 3 3 3 3 3 4 4 4 4 4 4 4 5 5 5 5 5 5 5 4 4 4 4 5 6 6 6 6 6 8 8 7 5 5
3 3 3 3 3 3 3 4 4 4 4 4 4 4 4 4 4 4 4 4 4 4 4 4 3 3 4 5 5 5 6 6 4 4 5 6 8 10
Wind_Direction
237 238 241 245 242 231 224 222 227 232 234 227 220 214 230 244 254 254 254 254 264 271 275 279 279 276 273 276 276 275 275 276 277 279 284 283 279 280
238 238 238 241 247 239 228 228 234 240 244 233 241 240 237 249 251 256 257 260 252 254 260 266 269 269 267 269 273 276 276 275 276 277 277 282 283 278
238 237 238 238 240 242 233 227 228 232 245 251 246 244 237 244 248 252 254 253 251 253 258 260 263 264 263 265 269 272 274 273 273 275 276 278 282 284
240 240 240 238 238 240 233 233 231 230 239 248 242 238 242 240 245 250 256 259 259 258 259 261 262 262 263 264 266 268 269 268 269 272 274 276 279 282
243 242 241 238 238 239 232 233 234 234 236 243 247 241 247 243 245 248 255 257 260 257 255 256 257 260 264 265 265 263 264 265 265 267 270 274 276 278
245 246 245 243 240 241 233 231 229 230 230 234 240 242 246 246 246 245 252 252 258 256 253 255 257 258 260 261 262 263 263 264 263 264 268 270 272 274
245 246 246 247 246 245 238 232 227 229 230 231 234 239 239 235 240 247 257 268 266 253 255 252 255 255 253 252 254 257 260 260 260 261 264 268 271 273
246 247 248 248 248 249 243 239 235 231 232 234 238 238 241 244 248 244 251 258 263 247 260 262 257 257 256 253 256 260 260 260 261 261 262 264 267 269
249 249 248 244 248 250 246 244 242 240 238 236 241 242 243 239 238 241 243 248 260 260 259 266 260 259 259 257 261 263 263 261 258 260 261 262 263 266
250 249 250 249 247 246 242 242 244 242 242 239 243 246 247 245 238 243 250 258 270 260 249 264 267 266 266 262 257 259 261 261 263 262 262 264 267 268
253 251 250 250 255 250 243 244 248 248 249 252 255 257 255 254 250 241 238 243 256 256 248 258 265 273 273 266 260 257 259 261 263 265 265 266 267 268
256 252 250 252 258 251 241 242 246 249 251 254 255 255 251 242 235 231 228 233 249 255 232 248 263 276 275 265 265 264 260 260 261 265 266 265 266 265
260 258 255 256 260 255 248 246 249 256 252 247 248 248 247 242 236 234 235 234 241 252 235 242 253 256 262 275 277 271 267 265 263 263 263 264 263 262
261 262 264 265 263 257 252 255 257 257 246 242 243 244 242 244 243 243 244 247 252 256 247 244 251 249 258 266 271 270 271 270 269 268 263 263 263 264
266 269 272 270 260 253 251 255 254 246 240 241 242 246 247 244 247 247 245 250 256 254 247 247 250 250 252 258 267 268 275 273 263 262 264 263 262 262
272 274 271 264 254 257 256 248 245 246 246 246 250 253 249 240 239 240 241 241 250 257 250 245 248 250 252 258 261 263 262 264 259 263 267 268 267 265
277 270 265 258 247 247 249 251 249 245 244 247 248 249 247 243 242 237 238 237 244 251 260 257 255 259 261 261 260 259 262 265 264 263 264 267 266 265
263 256 258 257 254 252 253 252 248 248 249 248 247 242 241 242 244 239 234 235 242 247 252 254 259 273 272 263 250 257 260 265 267 265 263 266 269 265
257 256 258 257 259 259 257 254 255 256 253 250 250 247 244 241 241 240 236 238 244 248 250 249 248 251 261 270 269 255 265 271 273 269 266 266 272 275
271 272 274 273 268 264 262 263 265 261 251 248 249 249 247 245 242 243 241 242 248 254 256 251 246 247 253 266 278 282 274 270 270 271 275 276 279 283
271 274 275 276 272 268 267 267 266 266 265 259 251 248 246 243 246 246 246 246 251 251 253 257 260 268 272 264 262 269 278 279 281 275 275 275 281 281
275 270 270 271 270 269 269 268 267 266 266 265 262 255 250 245 246 249 247 247 252 254 261 270 275 266 256 252 262 275 287 290 289 286 279 270 270 270
281 279 277 273 267 265 264 264 266 268 267 268 268 262 255 252 251 252 250 247 251 256 261 269 272 269 263 259 266 275 283 289 289 290 287 288 285 283